Location: Muncie
(40.1930°N, 85.3860°W)
Time: 01:42:01
(UTC-05:00)

Tiangong - Visible Passes

Search period start: 13 February 2026 00:00
Search period end: 23 February 2026 00:00
Orbit: 386 x 392 km, 41.5° (Epoch: 11 February)

Date Brightness Start Highest point End Pass type
(mag) Time Alt. Az. Time Alt. Az. Time Alt. Az.
13 Feb -1.4 20:02:17 10° W 20:04:53 53° WNW 20:04:53 53° WNW visible
14 Feb -2.1 19:03:52 10° W 19:07:03 82° N 19:09:21 17° ENE visible
14 Feb 1.0 20:40:54 10° W 20:41:39 16° WNW 20:41:39 16° WNW visible
15 Feb -2.1 19:42:26 10° W 19:45:36 67° N 19:46:03 56° NE visible
16 Feb -2.0 18:43:54 10° W 18:47:04 68° N 18:50:15 10° E visible
16 Feb -0.3 20:20:53 10° WNW 20:22:43 31° W 20:22:43 31° W visible
17 Feb -2.2 19:22:20 10° WNW 19:25:31 75° N 19:27:04 27° E visible
18 Feb -1.8 20:00:41 10° W 20:03:42 58° SSW 20:03:42 58° SSW visible
19 Feb -2.1 19:02:00 10° WNW 19:05:12 84° SSW 19:08:04 12° ESE visible
19 Feb 0.8 20:39:18 10° W 20:40:22 16° WSW 20:40:22 16° WSW visible
20 Feb -0.9 19:40:20 10° W 19:43:17 35° SSW 19:44:46 22° SSE visible
21 Feb 0.7 20:19:34 10° WSW 20:21:03 13° SW 20:21:32 12° SSW visible
22 Feb 0.2 19:19:57 10° W 19:22:27 21° SSW 19:24:55 10° SSE visible
